This demonstration page uses our WeatherBlox Daily Observations layout. Learn more.

Left ArrowRight Arrow

34.02893, -84.19858

Hourly Observations for April 15, 2022

Temp ( °F °C ) Dew Point ( °F °C ) Humidity (%) Winds ( mph kmh ) Pressure ( in mb ) Visibility ( mi km ) Precip ( " mm )
12:53 am 00:53 Clear 54 12.2 32 0 43 43 NNW 6 9 30.11 1020 10 16 0.00 0.00
1:53 am 01:53 Clear 49 9.4 33 0.6 55 55 N 5 7 30.11 1020 10 16 0.00 0.00
2:53 am 02:53 Clear 46 7.8 34 1.1 63 63 N 3 6 30.10 1019 10 16 0.00 0.00
3:53 am 03:53 Clear 43 6.1 35 1.7 74 74 NNE 3 6 30.11 1020 10 16 0.00 0.00
4:53 am 04:53 Clear 45 7.2 34 1.1 66 66 Calm 30.11 1020 10 16 0.00 0.00
5:53 am 05:53 Clear 43 6.1 38 3.3 82 82 Calm 30.14 1021 10 16 0.00 0.00
6:53 am 06:53 Clear 39 3.9 36 2.2 89 89 Calm 30.17 1022 10 16 0.00 0.00
7:53 am 07:53 Sunny 41 5 39 3.9 93 93 Calm 30.20 1023 10 16 0.00 0.00
8:53 am 08:53 Sunny 55 12.8 38 3.3 53 53 Calm 30.21 1023 10 16 0.00 0.00
9:53 am 09:53 Sunny 60 15.6 35 1.7 39 39 undefined N/A 30.20 1023 10 16 0.00 0.00
10:53 am 10:53 Sunny 65 18.3 32 0 29 29 ENE 8 13 30.21 1023 10 16 0.00 0.00
11:53 am 11:53 Sunny 68 20 33 0.6 27 27 undefined N/A 30.20 1023 10 16 0.00 0.00
12:53 pm 12:53 Sunny 69 20.6 33 0.6 26 26 VRB 6 9 30.19 1022 10 16 0.00 0.00
1:53 pm 13:53 Sunny 71 21.7 32 0 24 24 VRB 7 11 30.16 1021 10 16 0.00 0.00
2:53 pm 14:53 Sunny 73 22.8 33 0.6 23 23 E 8 13 30.14 1021 10 16 0.00 0.00
3:53 pm 15:53 Sunny 74 23.3 35 1.7 24 24 VRB 3 6 30.11 1020 10 16 0.00 0.00
4:53 pm 16:53 Sunny 74 23.3 36 2.2 25 25 VRB 5 7 30.08 1019 10 16 0.00 0.00
5:53 pm 17:53 Sunny 74 23.3 34 1.1 23 23 SE 5 7 30.07 1018 10 16 0.00 0.00
6:53 pm 18:53 Sunny 74 23.3 35 1.7 24 24 ESE 6 9 30.07 1018 10 16 0.00 0.00
7:53 pm 19:53 Sunny 70 21.1 37 2.8 30 30 SE 3 6 30.07 1018 10 16 0.00 0.00
8:53 pm 20:53 Clear 64 17.8 38 3.3 38 38 Calm 30.07 1018 10 16 0.00 0.00
9:53 pm 21:53 Clear 61 16.1 41 5 48 48 Calm 30.09 1019 10 16 0.00 0.00
10:53 pm 22:53 Clear 61 16.1 40 4.4 46 46 SE 3 6 30.09 1019 10 16 0.00 0.00
11:53 pm 23:53 Clear 63 17.2 39 3.9 41 41 VRB 6 9 30.06 1018 10 16 0.00 0.00

Powered by AerisWeather